Weather History for PABE - September, 2012

Change the Weather History Date:

Wednesday, September 5, 2012

  Actual Average Record
Temperature  
Mean Temperature 49 °F 50 °F  
Max Temperature 51 °F 57 °F 69 °F (1924)
Min Temperature 47 °F 43 °F 28 °F (1927)
Degree Days  
Heating Degree Days 16 15  
Month to date heating degree days 87 73  
Since 1 July heating degree days 858 715  
Cooling Degree Days 0    
Month to date cooling degree days 0  
Year to date cooling degree days 0  
Moisture  
Dew Point 46 °F    
Average Humidity 0    
Maximum Humidity 0    
Minimum Humidity 0    
Precipitation  
Precipitation 0.31 in 0.10 in 1.16 in (1928)
Month to date precipitation 1.60 0.50  
Year to date precipitation 14.77 11.92  
Snow  
Snow 0.00 in 0.00 in T in (1971)
Month to date snowfall 0.0 0.0  
Since 1 July snowfall 0.0 0.0  
Since 1 September snowfall 0.0 0.0  
Snow Depth 0.00 in    
Sea Level Pressure  
Sea Level Pressure 29.31 in    
Wind  
Wind Speed 17 mph (SSW)    
Max Wind Speed 26 mph    
Max Gust Speed 32 mph    
Visibility 8 miles    
Events Rain    
T = Trace of Precipitation, MM = Missing Value Source: NWS Daily Summary

Daily Weather History Graph

Daily Weather History Graph

Search for Another Location

Airport or City:

Trip Planner

Search our weather history database for the weather conditions in past years. The results will help you decide how hot, cold, wet, or windy it might be!

Date:

Astronomy

Sep. 05, 2012 Rise Set
Actual Time 7:51 AM AKDT 9:38 PM AKDT
Civil Twilight 7:06 AM AKDT 10:22 PM AKDT
Nautical Twilight 6:08 AM AKDT 11:20 PM AKDT
Astronomical Twilight 4:56 AM AKDT 12:30 AM AKDT
Moon 10:27 PM AKDT 2:53 PM AKDT
Length of Visible Light 15h 16m
Length of Day
13h 46m
Waning Gibbous, 75% of the Moon is Illuminated
Sep 5
Waning Gibbous
Sep 8
Last Quarter
Sep 15
New
Sep 22
First Quarter
Sep 29
Full

Hourly Weather History & Observations

Time (AKDT) Temp. Windchill Dew Point Humidity Pressure Visibility Wind Dir Wind Speed Gust Speed Precip Events Conditions
12:00 AM 46.4 °F 38.3 °F 44.6 °F 93% 29.04 in 4.0 mi SE 23.0 mph 29.9 mph 0.00 in Rain Light Rain
12:20 AM 46.4 °F 38.7 °F 46.4 °F 100% 29.04 in 3.0 mi SE 20.7 mph 29.9 mph 0.01 in Rain Light Rain
12:53 AM 46.9 °F - 46.0 °F 97% 29.04 in 2.5 mi SSE 17.3 mph 27.6 mph 0.02 in Rain Light Rain
1:11 AM 46.4 °F 39.5 °F 46.4 °F 100% 29.04 in 5.0 mi SSE 17.3 mph 26.5 mph 0.01 in Rain Light Rain
1:32 AM 46.4 °F - 44.6 °F 93% 29.12 in 5.0 mi North - - N/A Rain Light Rain
1:53 AM 46.9 °F - 46.0 °F 97% 29.06 in 6.0 mi SSE 19.6 mph 31.1 mph 0.03 in Rain Light Rain
2:53 AM 46.9 °F - 46.9 °F 100% 29.07 in 6.0 mi SSE 19.6 mph 26.5 mph 0.03 in Rain Light Rain
3:53 AM 46.9 °F - 46.0 °F 97% 29.08 in 6.0 mi SSE 17.3 mph 25.3 mph 0.11 in Rain Rain
4:44 AM 46.4 °F 40.1 °F 46.4 °F 100% 29.09 in 10.0 mi South 15.0 mph - 0.14 in Rain Light Rain
4:53 AM 46.9 °F - 46.0 °F 97% 29.10 in 10.0 mi South 16.1 mph - 0.15 in Rain Light Rain
5:53 AM 48.0 °F - 46.0 °F 93% 29.11 in 10.0 mi South 15.0 mph - 0.00 in   Overcast
6:12 AM 46.4 °F 40.1 °F 46.4 °F 100% 29.11 in 10.0 mi South 15.0 mph - N/A   Overcast
6:43 AM 46.4 °F 41.1 °F 46.4 °F 100% 29.12 in 10.0 mi South 11.5 mph - N/A   Overcast
6:53 AM 46.9 °F - 46.0 °F 97% 29.13 in 5.0 mi South 13.8 mph - 0.00 in Rain Light Rain
7:13 AM 46.4 °F 40.4 °F 46.4 °F 100% 29.13 in 10.0 mi South 13.8 mph - 0.00 in Rain Light Rain
7:31 AM 46.4 °F 40.4 °F 46.4 °F 100% 29.14 in 10.0 mi South 13.8 mph - 0.00 in Rain Light Rain
7:38 AM 46.4 °F 40.1 °F 46.4 °F 100% 29.15 in 10.0 mi South 15.0 mph - 0.00 in Rain Light Rain
7:53 AM 46.9 °F - 46.0 °F 97% 29.16 in 10.0 mi SSW 12.7 mph 20.7 mph 0.00 in Rain Light Rain
8:11 AM 46.4 °F 40.7 °F 46.4 °F 100% 29.16 in 10.0 mi SSW 12.7 mph - 0.00 in   Overcast
8:34 AM 46.4 °F 41.5 °F 46.4 °F 100% 29.17 in 2.5 mi SSW 10.4 mph - 0.00 in   Overcast
8:43 AM 46.4 °F 41.1 °F 46.4 °F 100% 29.17 in 6.0 mi SSW 11.5 mph - 0.00 in   Overcast
8:53 AM 46.9 °F - 46.0 °F 97% 29.18 in 10.0 mi South 11.5 mph - 0.00 in   Overcast
9:22 AM 48.2 °F - 46.4 °F 93% 29.19 in 10.0 mi SSW 11.5 mph - N/A   Overcast
9:30 AM 48.2 °F - 46.4 °F 93% 29.19 in 10.0 mi SSW 11.5 mph - N/A   Overcast
9:43 AM 48.2 °F - 46.4 °F 93% 29.20 in 6.0 mi SSW 12.7 mph - 0.00 in Rain Light Rain
9:53 AM 48.0 °F - 46.9 °F 96% 29.21 in 10.0 mi SW 12.7 mph - 0.00 in   Overcast
10:00 AM 48.2 °F - 46.4 °F 93% 29.21 in 10.0 mi SW 15.0 mph - N/A   Overcast
10:38 AM 48.2 °F - 46.4 °F 93% 29.24 in 6.0 mi SSW 13.8 mph - 0.00 in   Overcast
10:53 AM 48.9 °F - 46.9 °F 93% 29.26 in 10.0 mi SW 13.8 mph - 0.00 in   Overcast
11:53 AM 48.9 °F - 46.9 °F 93% 29.29 in 9.0 mi SSW 17.3 mph - 0.00 in Rain Light Rain
12:09 PM 48.2 °F - 46.4 °F 93% 29.30 in 8.0 mi SW 19.6 mph - 0.00 in Rain Light Rain
12:14 PM 50.0 °F - 46.4 °F 87% 29.31 in 10.0 mi SW 19.6 mph 26.5 mph 0.00 in   Overcast
12:24 PM 50.0 °F - 46.4 °F 87% 29.31 in 10.0 mi SW 20.7 mph - 0.00 in   Overcast
12:40 PM 50.0 °F - 46.4 °F 87% 29.32 in 10.0 mi SW 18.4 mph - 0.00 in   Overcast
12:53 PM 50.0 °F - 46.9 °F 89% 29.34 in 10.0 mi SW 17.3 mph - 0.00 in   Overcast
1:04 PM 50.0 °F - 46.4 °F 87% 29.34 in 10.0 mi SW 21.9 mph 26.5 mph N/A   Overcast
1:13 PM 50.0 °F - 46.4 °F 87% 29.35 in 10.0 mi SW 19.6 mph 26.5 mph N/A   Overcast
1:21 PM 51.8 °F - 46.4 °F 82% 29.35 in 6.0 mi SW 21.9 mph 29.9 mph 0.00 in Rain Light Rain
1:48 PM 48.2 °F - 46.4 °F 93% 29.38 in 6.0 mi WSW 19.6 mph 31.1 mph 0.00 in Rain Light Rain
1:53 PM 48.0 °F - 46.0 °F 93% 29.39 in 6.0 mi WSW 21.9 mph 29.9 mph 0.00 in Rain Light Rain
2:33 PM 48.2 °F - 46.4 °F 93% 29.41 in 9.0 mi SW 24.2 mph - 0.00 in   Overcast
2:53 PM 48.9 °F - 45.0 °F 86% 29.43 in 10.0 mi SW 28.8 mph 33.4 mph 0.00 in   Mostly Cloudy
3:38 PM 48.2 °F - 44.6 °F 87% 29.46 in 10.0 mi SW 26.5 mph 32.2 mph 0.00 in   Overcast
3:49 PM 48.2 °F - 44.6 °F 87% 29.47 in 10.0 mi SW 19.6 mph 32.2 mph 0.00 in   Overcast
3:53 PM 46.9 °F - 45.0 °F 93% 29.48 in 5.0 mi SW 23.0 mph 35.7 mph 0.00 in Rain Light Rain
4:00 PM 46.4 °F 38.7 °F 44.6 °F 93% 29.48 in 7.0 mi SW 20.7 mph 29.9 mph 0.00 in Rain Light Rain
4:53 PM 46.9 °F - 44.1 °F 90% 29.52 in 6.0 mi WSW 18.4 mph 31.1 mph 0.03 in Rain Light Rain
5:53 PM 46.9 °F - 43.0 °F 86% 29.55 in 10.0 mi WSW 16.1 mph - 0.00 in   Overcast
6:53 PM 46.0 °F 38.8 °F 44.1 °F 93% 29.59 in 9.0 mi SSW 18.4 mph - 0.00 in Rain Light Rain
7:53 PM 46.0 °F 39.9 °F 44.1 °F 93% 29.62 in 6.0 mi SW 13.8 mph - 0.01 in Rain Light Rain
8:53 PM 45.0 °F 38.5 °F 44.1 °F 97% 29.66 in 7.0 mi SW 13.8 mph - 0.00 in Rain Light Rain
9:03 PM 44.6 °F 37.4 °F 42.8 °F 93% 29.65 in 10.0 mi SW 16.1 mph - 0.00 in   Overcast
9:53 PM 45.0 °F 39.3 °F 43.0 °F 93% 29.69 in 10.0 mi SW 11.5 mph - 0.00 in   Mostly Cloudy
10:39 PM 44.6 °F 38.8 °F 42.8 °F 93% 29.72 in 10.0 mi SW 11.5 mph - N/A   Overcast
10:53 PM 44.1 °F 37.1 °F 43.0 °F 96% 29.73 in 10.0 mi SW 15.0 mph - N/A   Overcast
11:31 PM 44.6 °F 37.8 °F 42.8 °F 93% 29.74 in 10.0 mi SW 15.0 mph - 0.00 in   Overcast
11:53 PM 43.0 °F 37.2 °F 41.0 °F 93% 29.76 in 10.0 mi SW 10.4 mph - 0.00 in   Overcast